Location: Caltech
(34.1382°N, 118.1253°W)
Time: 03:22:51
(UTC-07:00)

Iridium 62 - Visible Passes

Search period start: 25 April 2017 00:00
Search period end: 05 May 2017 00:00
Orbit: 776 x 779 km, 86.4° (Epoch: 23 April)

Date Brightness Start Highest point End Pass type
(mag) Time Alt. Az. Time Alt. Az. Time Alt. Az.
25 Apr 7.3 02:45:42 34° NE 02:45:42 34° NE 02:48:57 10° NNE visible
25 Apr 7.7 04:26:11 15° WNW 04:26:11 15° WNW 04:28:05 10° NW visible
26 Apr 8.0 02:12:22 20° NE 02:12:22 20° NE 02:14:46 10° NNE visible
26 Apr 7.2 03:52:50 25° NW 03:52:50 25° NW 03:55:45 10° NNW visible
27 Apr 8.6 01:39:01 11° ENE 01:39:01 11° ENE 01:39:29 10° NE visible
27 Apr 6.9 03:19:29 36° NNW 03:19:29 36° NNW 03:22:41 10° N visible
28 Apr 7.2 02:46:07 36° NNE 02:46:07 36° NNE 02:49:12 10° N visible
29 Apr 7.8 02:12:45 25° NE 02:12:45 25° NE 02:15:20 10° NNE visible
29 Apr 7.7 03:53:13 17° NW 03:53:13 17° NW 03:55:16 10° NNW visible
30 Apr 8.3 01:39:22 15° NE 01:39:22 15° NE 01:40:52 10° NE visible
30 Apr 7.3 03:19:51 27° NW 03:19:51 27° NW 03:22:34 10° NNW visible
01 May 7.2 02:46:27 34° N 02:46:27 34° N 02:49:20 10° N visible
02 May 7.6 02:13:03 29° NNE 02:13:03 29° NNE 02:15:42 10° NNE visible
02 May 8.0 03:53:31 12° NW 03:53:31 12° NW 03:54:18 10° NW visible
03 May 8.1 01:39:38 20° NE 01:39:38 20° NE 01:41:38 10° NNE visible
03 May 7.6 03:20:06 20° NW 03:20:06 20° NW 03:22:15 10° NNW visible
04 May 8.6 01:06:14 11° NE 01:06:14 11° NE 01:06:44 10° NE visible
04 May 7.4 02:46:42 28° NNW 02:46:42 28° NNW 02:49:18 10° N visible
